CAPE
1 1 1 2 3 3 2 2 2 2 2 2 1 1 1 0 0 0 0 0 0 0 0 0 0 0 0 0 0 2 9 42 31 20 30 55 1 6 0 4 29 40 35 27 6 10 21 32 16 27 160 247 587 978
3 1 2 2 2 2 2 1 1 1 2 2 0 0 2 2 0 0 0 0 0 0 0 0 0 0 0 0 0 0 11 47 47 46 31 51 25 16 13 1 22 28 41 84 40 128 64 49 158 16 73 332 778 881
2 1 1 1 2 2 1 2 1 2 2 2 0 1 0 1 0 0 0 0 0 0 0 0 0 0 0 0 0 0 29 8 45 0 65 61 45 15 4 5 30 72 56 53 33 38 15 60 40 32 112 260 262 56
1 2 2 1 1 1 1 1 1 2 3 1 0 1 0 0 0 0 0 0 0 0 0 0 0 0 0 0 0 0 2 3 18 31 60 65 53 13 40 32 34 76 66 132 55 37 25 37 42 66 222 252 124 60
1 1 0 1 1 1 1 1 0 1 2 2 1 0 0 1 1 0 1 0 0 0 0 0 0 0 0 0 0 0 3 8 46 55 52 74 76 61 102 72 33 30 46 37 60 37 42 0 74 108 125 126 47 4
1 1 1 1 1 1 1 1 0 1 2 3 1 0 0 0 0 0 0 0 0 0 0 0 0 0 0 0 0 0 17 28 56 57 60 35 73 68 97 143 163 55 66 54 69 48 128 63 101 68 152 109 17 0
1 1 1 1 1 1 1 1 1 0 1 2 1 0 0 0 2 2 0 0 0 0 1 0 0 0 0 0 0 0 0 12 45 68 46 86 82 10 19 48 106 60 19 46 44 41 76 18 25 77 96 20 0 0
1 0 1 1 1 1 0 0 0 0 1 2 0 0 0 1 0 0 0 0 0 0 0 0 0 0 0 3 30 20 9 0 16 53 66 103 74 47 8 21 41 31 35 67 71 38 64 84 49 9 0 0 0 0
1 1 0 1 1 1 1 1 1 0 1 0 0 0 0 0 2 0 0 0 0 0 4 0 0 1 0 31 79 94 96 78 78 33 50 128 88 68 20 52 57 26 37 30 63 75 54 68 32 0 0 0 0 0
0 0 0 1 1 1 1 2 2 1 2 0 0 2 6 0 0 0 0 0 0 0 0 0 0 0 0 70 117 156 136 84 111 105 132 83 29 40 71 53 34 39 85 81 95 109 88 79 40 3 0 0 0 0
0 0 2 4 7 7 6 6 4 1 0 1 3 1 1 0 2 3 17 16 13 13 3 0 0 0 0 0 93 201 188 120 67 78 73 55 76 71 35 23 64 26 73 75 85 129 92 66 37 25 1 0 0 0
2 3 6 6 8 5 5 11 4 2 4 1 0 0 0 15 25 34 14 14 6 2 1 4 138 9 0 0 0 243 99 136 54 119 89 69 115 98 142 86 60 110 90 66 85 145 79 24 8 18 0 2 6 10
3 3 2 4 5 7 7 12 3 0 0 0 2 3 15 22 5 9 8 5 10 2 56 129 154 90 0 0 26 199 100 58 167 133 81 84 193 337 446 249 160 160 131 79 91 147 100 45 10 0 0 14 47 37
3 3 3 3 5 5 6 10 3 0 0 2 5 3 4 8 9 15 2 17 21 8 46 59 86 0 10 0 54 44 87 137 71 118 63 105 461 499 297 242 131 134 71 89 139 134 146 136 99 76 60 114 128 95
2 2 3 4 6 3 9 7 4 4 2 1 3 2 6 14 25 4 2 0 0 0 3 61 162 92 103 45 67 36 74 46 46 8 178 346 580 526 347 208 124 131 92 92 139 151 184 199 173 241 230 272 259 219
3 3 2 0 0 9 10 10 8 0 2 3 2 1 24 32 27 17 11 10 3 0 4 22 32 57 40 58 49 52 54 43 124 342 469 604 506 444 228 202 202 190 170 117 91 99 147 197 252 347 300 198 164 100
6 1 0 0 7 9 5 4 0 1 2 6 3 1 1 31 41 31 24 26 9 18 53 33 20 52 72 46 46 72 75 108 287 427 530 735 644 585 652 325 125 137 232 302 339 392 373 285 173 111 83 15 1 0
3 1 0 6 8 11 7 1 2 5 10 5 4 3 23 38 44 43 11 2 76 100 50 32 25 7 26 27 54 85 112 223 506 659 798 786 793 753 851 461 165 143 105 104 190 160 112 103 110 66 201 216 14 0
1 2 2 3 1 0 0 0 1 13 9 7 6 10 26 37 65 8 25 26 8 63 82 7 11 17 16 24 83 62 211 256 290 437 584 771 514 250 357 1097 503 234 157 148 227 184 210 192 194 198 117 46 18 0
2 1 1 0 0 2 1 13 19 18 16 8 0 2 8 12 41 21 11 8 0 37 22 13 30 42 55 54 79 123 158 193 228 208 235 356 459 417 438 413 578 998 829 564 429 145 259 253 149 58 17 5 9 1
6 3 3 1 2 0 4 17 6 12 21 19 4 1 9 18 21 34 7 1 3 15 30 72 71 57 47 112 220 170 166 211 102 227 285 256 366 427 478 456 395 411 439 362 348 344 234 262 213 170 96 1 0 0
3 1 1 5 2 1 1 22 15 22 8 21 20 27 17 25 23 18 6 0 0 0 6 53 77 75 72 64 130 256 180 216 356 343 111 131 213 404 444 384 311 264 257 320 392 338 375 416 397 287 202 94 2 0
4 4 2 2 1 1 1 47 15 15 8 16 15 8 30 41 35 18 6 2 0 0 6 7 8 30 95 65 138 137 220 316 299 287 320 312 325 407 418 407 368 329 222 159 458 395 387 185 231 176 351 202 273 270
8 8 1 2 0 1 3 25 31 21 12 19 17 0 31 16 16 12 10 10 2 0 0 4 0 0 12 91 69 41 83 219 161 75 207 289 270 244 315 254 191 176 240 359 537 595 609 432 384 412 439 548 421 336
0 0 8 5 11 5 11 23 19 13 8 9 29 17 16 24 17 7 4 63 196 73 24 33 28 43 67 211 273 216 160 106 41 61 89 222 189 132 118 154 214 148 268 417 531 637 633 556 454 425 495 546 530 482
1 5 1 20 9 0 17 11 6 13 25 18 0 8 35 18 15 26 54 130 126 135 218 260 282 267 289 306 241 256 281 225 141 108 48 87 80 86 165 253 497 419 268 341 231 192 288 536 510 456 410 413 288 294
1 3 4 0 0 12 32 30 58 31 10 7 7 11 10 27 42 45 111 198 182 198 296 303 266 264 309 350 344 312 213 395 410 445 473 447 338 340 395 408 502 453 497 402 396 460 463 456 525 446 444 381 429 486
3 11 15 22 27 27 47 44 32 12 16 16 27 1 22 27 22 70 91 53 49 10 28 147 238 236 319 328 366 280 342 479 465 417 395 399 412 453 366 302 438 238 212 333 418 515 502 508 529 488 396 418 427 495
7 19 4 0 8 16 19 4 4 4 6 13 27 26 57 5 1 6 15 21 0 0 0 4 34 204 340 364 369 368 345 331 352 452 468 333 389 502 561 499 467 488 558 496 35 32 469 474 436 429 398 413 500 594
14 4 11 2 0 0 1 0 0 0 0 101 75 32 12 5 4 1 2 4 0 0 0 0 0 1 34 86 220 331 307 314 358 302 308 371 439 391 397 460 494 544 651 642 551 371 0 0 82 88 112 296 415 350
11 12 18 21 10 3 0 0 0 0 110 241 123 66 38 6 4 1 0 1 2 0 0 0 0 0 0 0 17 53 175 65 17 65 104 94 216 338 477 550 532 542 690 709 697 567 509 255 270 350 328 295 207 67
0 7 1 0 0 0 0 0 0 9 81 60 138 117 70 106 13 1 0 0 0 0 0 0 0 0 0 0 0 1 0 0 0 0 0 0 0 15 303 531 471 393 458 633 681 616 555 541 475 447 430 422 529 466
0 0 0 0 1 1 0 1 1 4 8 4 32 94 96 40 4 3 0 0 0 0 0 0 0 0 0 0 0 0 0 0 0 0 0 0 0 0 0 0 0 0 1 257 476 414 487 574 564 557 645 619 475 324
CIN
-2 -4 -2 -4 -1 -1 -1 -2 -1 -0 -1 -0 -0 -0 -0 -0 -0 -0 -0 -0 -0 -0 -0 -0 -0 -0 -0 -0 -0 -10 -13 -23 -6 -3 -1 -2 -0 -2 -0 -6 -3 -3 -4 -5 -5 -2 -3 -56 -45 -20 -61 -86 -46 -23
-1 -3 -3 -4 -1 -2 -2 -1 -1 -2 -0 -0 -0 -0 -0 -0 -0 -0 -0 -0 -0 -0 -0 -0 -0 -0 -0 -0 -0 -0 -34 -45 -15 -3 -10 -15 -11 -27 -24 -3 -61 -10 -5 -4 -7 -4 -95 -71 -60 -65 -99 -52 -24 -19
-1 -1 -2 -2 -1 -2 -1 -4 -2 -1 -0 -0 -0 -0 -0 -0 -0 -0 -0 -0 -0 -0 -0 -0 -0 -0 -0 -0 -0 -0 -28 -86 -56 -0 -22 -12 -14 -34 -7 -0 -15 -63 -98 -14 -32 -31 -50 -60 -79 -112 -84 -36 -39 -58
-1 -1 -1 -1 -2 -2 -3 -2 -3 -2 -2 -0 -0 -0 -0 -0 -0 -0 -0 -0 -0 -0 -0 -0 -0 -0 -0 -0 -0 -0 -14 -46 -123 -85 -24 -3 -1 -49 -3 -27 -23 -36 -87 -24 -18 -27 -40 -58 -59 -54 -54 -47 -52 -66
-1 -1 -3 -3 -5 -4 -3 -2 -5 -5 -4 -1 -0 -0 -0 -0 -0 -0 -0 -0 -0 -0 -0 -0 -0 -0 -0 -0 -0 -0 -89 -129 -50 -25 -8 -4 -20 -34 -36 -34 -7 -47 -14 -8 -4 -15 -18 -0 -40 -45 -46 -37 -73 -82
-2 -1 -4 -4 -4 -2 -2 -2 -7 -6 -5 -3 -0 -0 -0 -0 -0 -1 -0 -0 -0 -0 -0 -0 -0 -0 -0 -0 -0 -5 -86 -68 -56 -14 -3 -5 -39 -24 -1 -0 -2 -13 -25 -10 -2 -36 -17 -23 -29 -39 -22 -13 -52 -0
-2 -1 -4 -5 -4 -3 -3 -3 -3 -6 -10 -3 -0 -0 -0 -0 -0 -1 -0 -0 -0 -0 -0 -0 -0 -0 -0 -0 -0 -4 -0 -32 -45 -6 -4 -4 -7 -30 -4 -2 -2 -4 -11 -18 -28 -46 -31 -41 -29 -43 -37 -52 -0 -0
-2 -3 -4 -3 -3 -2 -3 -3 -4 -0 -10 -4 -0 -0 -0 -0 -0 -0 -0 -0 -0 -0 -0 -0 -0 -0 -0 -1 -3 -20 -56 -34 -36 -5 -7 -3 -19 -22 -7 -3 -10 -2 -9 -22 -30 -28 -12 -14 -40 -55 -0 -0 -0 -0
-4 -4 -3 -6 -6 -6 -6 -6 -8 -8 -12 -0 -0 -0 -0 -0 -0 -0 -0 -0 -0 -0 -0 -0 -0 -1 -0 -1 -3 -11 -12 -3 -8 -27 -13 -4 -6 -3 -4 -17 -9 -14 -5 -7 -12 -20 -24 -27 -33 -0 -0 -0 -0 -0
-5 -6 -5 -7 -6 -5 -7 -9 -8 -10 -9 -0 -0 -0 -0 -0 -0 -0 -0 -0 -0 -0 -0 -0 -0 -0 -0 -5 -2 -2 -1 -4 -0 -3 -3 -5 -5 -3 -2 -2 -6 -13 -11 -12 -8 -15 -27 -29 -37 -18 -0 -0 -0 -0
-0 -2 -4 -4 -4 -4 -1 -1 -8 -10 -5 -0 -2 -1 -0 -0 -0 -10 -0 -0 -0 -0 -0 -0 -0 -0 -0 -0 -5 -3 -2 -2 -1 -3 -5 -1 -3 -3 -6 -15 -12 -8 -12 -12 -17 -14 -16 -4 -19 -25 -10 -0 -0 -0
-0 -1 -1 -0 -0 -0 -1 -0 -4 -2 -0 -0 -0 -0 -0 -0 -0 -0 -1 -0 -0 -1 -0 -17 -14 -52 -0 -0 -0 -8 -2 -7 -1 -15 -2 -2 -2 -20 -31 -15 -12 -10 -16 -15 -23 -18 -8 -14 -27 -22 -0 -2 -41 -80
-0 -0 -0 -0 -0 -0 -0 -0 -9 -0 -0 -0 -0 -7 -0 -2 -0 -0 -0 -1 -0 -1 -20 -8 -3 -16 -0 -0 -1 -4 -1 -1 -8 -1 -1 -3 -9 -19 -35 -60 -57 -56 -54 -48 -35 -25 -16 -15 -16 -0 -0 -6 -21 -47
-0 -0 -0 -0 -0 -0 -0 -0 -6 -0 -0 -0 -0 -6 -2 -0 -1 -1 -2 -1 -0 -72 -39 -22 -33 -1 -3 -0 -1 -11 -2 -3 -5 -1 -2 -1 -16 -35 -74 -97 -96 -76 -75 -49 -43 -48 -39 -38 -22 -23 -17 -15 -20 -25
-0 -0 -0 -0 -0 -0 -0 -0 -0 -0 -0 -0 -0 -1 -0 -1 -1 -1 -0 -0 -0 -0 -13 -12 -11 -6 -6 -6 -2 -6 -4 -1 -0 -3 -2 -13 -53 -64 -86 -110 -103 -87 -75 -47 -49 -39 -39 -35 -29 -31 -29 -32 -29 -31
-0 -0 -0 -0 -1 -0 -0 -0 -0 -0 -0 -0 -0 -1 -1 -1 -1 -0 -1 -1 -1 -0 -23 -21 -13 -9 -2 -2 -10 -7 -1 -1 -2 -1 -1 -14 -34 -61 -109 -122 -138 -138 -109 -74 -50 -40 -54 -47 -30 -20 -36 -30 -36 -41
-0 -0 -0 -0 -0 -0 -1 -0 -0 -0 -0 -4 -0 -1 -0 -1 -2 -1 -1 -61 -42 -17 -5 -10 -9 -1 -2 -1 -1 -2 -1 -0 -2 -2 -7 -35 -50 -54 -69 -97 -129 -123 -119 -105 -82 -70 -61 -73 -61 -42 -20 -34 -2 -0
-0 -1 -0 -0 -0 -0 -0 -0 -0 -6 -0 -1 -1 -1 -1 -1 -1 -1 -15 -54 -19 -17 -13 -7 -15 -14 -1 -1 -2 -2 -1 -2 -5 -13 -15 -29 -42 -60 -49 -67 -113 -114 -116 -110 -102 -90 -77 -60 -32 -14 -26 -34 -43 -0
-1 -0 -0 -0 -0 -0 -0 -0 -0 -0 -0 -2 -1 -1 -1 -1 -2 -49 -28 -39 -43 -27 -17 -36 -7 -1 -2 -1 -1 -2 -1 -6 -3 -9 -17 -31 -60 -80 -78 -31 -60 -70 -77 -72 -52 -27 -29 -40 -23 -17 -13 -23 -20 -0
-2 -0 -0 -0 -0 -1 -0 -1 -12 -0 -0 -1 -0 -2 -1 -2 -2 -10 -20 -13 -0 -11 -36 -36 -17 -4 -4 -2 -3 -4 -8 -14 -14 -5 -8 -6 -25 -63 -56 -52 -22 -28 -27 -45 -42 -84 -21 -25 -37 -46 -36 -36 -28 -11
-0 -0 -0 -3 -0 -0 -0 -2 -1 -1 -1 -1 -1 -2 -1 -2 -1 -1 -5 -6 -15 -2 -17 -5 -1 -1 -12 -3 -9 -17 -18 -20 -10 -3 -2 -0 -26 -23 -20 -27 -47 -25 -15 -11 -14 -18 -59 -25 -16 -24 -16 -2 -0 -0
-0 -2 -1 -0 -0 -0 -0 -5 -0 -1 -1 -0 -6 -2 -1 -2 -0 -1 -4 -0 -0 -0 -3 -1 -1 -3 -1 -14 -5 -14 -17 -28 -22 -14 -65 -55 -22 -8 -8 -9 -13 -7 -9 -16 -14 -12 -12 -10 -17 -18 -3 -4 -8 -0
-2 -2 -2 -2 -0 -0 -5 -0 -0 -1 -0 -1 -3 -2 -1 -1 -1 -8 -1 -0 -0 -20 -9 -3 -5 -12 -14 -15 -26 -27 -29 -30 -8 -1 -2 -8 -10 -12 -10 -11 -18 -11 -2 -1 -2 -3 -4 -30 -34 -32 -2 -17 -8 -3
-7 -2 -0 -0 -1 -0 -2 -0 -1 -1 -1 -1 -3 -0 -1 -2 -13 -1 -1 -0 -2 -0 -0 -8 -0 -0 -19 -23 -14 -5 -7 -15 -11 -8 -9 -8 -1 -1 -2 -2 -2 -2 -2 -1 -1 -8 -9 -9 -12 -13 -7 -2 -1 -4
-2 -0 -0 -0 -1 -0 -0 -5 -2 -0 -2 -1 -1 -1 -1 -6 -1 -2 -20 -10 -1 -12 -14 -16 -14 -11 -5 -1 -4 -9 -32 -16 -6 -0 -3 -4 -1 -1 -1 -3 -2 -3 -3 -14 -6 -5 -3 -1 -2 -4 -2 -1 -1 -1
-0 -0 -0 -0 -0 -0 -0 -0 -0 -1 -2 -2 -0 -4 -1 -1 -1 -1 -4 -5 -4 -8 -6 -5 -4 -4 -1 -2 -13 -2 -16 -56 -50 -20 -5 -4 -4 -2 -24 -18 -2 -1 -5 -24 -5 -2 -1 -2 -9 -3 -1 -6 -27 -28
-0 -1 -1 -0 -0 -1 -3 -7 -3 -1 -3 -0 -1 -0 -7 -1 -1 -5 -14 -0 -0 -2 -1 -1 -6 -10 -6 -6 -12 -18 -51 -54 -48 -25 -29 -25 -18 -20 -23 -24 -6 -5 -11 -21 -13 -8 -4 -2 -8 -3 -2 -2 -2 -2
-0 -0 -0 -0 -0 -0 -0 -0 -0 -2 -1 -0 -0 -4 -1 -2 -18 -5 -0 -14 -7 -27 -18 -1 -1 -8 -7 -18 -12 -29 -36 -33 -39 -46 -34 -27 -24 -33 -63 -59 -47 -101 -101 -60 -37 -20 -17 -9 -2 -3 -1 -1 -2 -1
-0 -0 -0 -0 -2 -0 -7 -6 -4 -2 -8 -12 -2 -7 -34 -79 -0 -57 -53 -37 -3 -0 -91 -89 -29 -3 -0 -1 -13 -21 -30 -19 -8 -4 -9 -5 -2 -1 -17 -28 -28 -23 -24 -23 -97 -88 -22 -24 -6 -3 -2 -3 -1 -2
-0 -8 -0 -0 -0 -0 -7 -1 -0 -0 -0 -6 -44 -89 -100 -0 -0 -0 -4 -23 -50 -0 -0 -0 -17 -39 -43 -23 -6 -4 -9 -21 -16 -23 -28 -20 -8 -10 -28 -22 -19 -19 -15 -20 -11 -23 -0 -0 -68 -56 -36 -14 -7 -3
-5 -0 -0 -0 -2 -7 -0 -0 -0 -0 -2 -2 -16 -60 -88 -45 -0 -0 -0 -0 -46 -0 -0 -0 -0 -0 -0 -0 -60 -36 -2 -34 -16 -61 -65 -75 -37 -25 -37 -38 -33 -25 -23 -20 -22 -10 -3 -21 -9 -3 -3 -4 -3 -11
-0 -4 -0 -1 -5 -0 -0 -0 -0 -17 -8 -13 -11 -14 -25 -10 -43 -0 -0 -0 -0 -0 -0 -0 -0 -0 -0 -0 -0 -1 -0 -0 -0 -0 -0 -0 -0 -118 -57 -32 -32 -41 -35 -17 -17 -13 -7 -8 -2 -1 -2 -1 -2 -2
-0 -0 -0 -0 -10 -1 -0 -0 -1 -0 -7 -12 -8 -3 -2 -20 -14 -0 -1 -0 -0 -0 -0 -0 -0 -0 -0 -0 -0 -0 -0 -0 -0 -0 -0 -0 -0 -0 -0 -0 -0 -0 -48 -30 -8 -6 -9 -8 -7 -7 -8 -17 -22 -12
Wind_Speed
34 33 33 32 32 32 32 31 31 30 30 29 28 27 27 24 26 22 17 19 18 15 14 11 10 9 8 8 8 15 12 10 13 14 16 17 16 16 16 16 19 15 13 10 14 16 12 15 11 12 14 13 13 11
33 33 33 32 32 32 31 31 30 29 29 28 26 26 26 23 23 22 16 17 17 13 14 16 7 1 1 7 13 11 13 13 16 15 15 16 13 15 20 22 13 19 15 17 16 16 14 12 14 12 15 12 12 11
33 33 32 32 31 31 31 30 30 28 27 27 26 24 25 24 19 20 17 18 16 16 17 13 15 10 5 6 4 8 9 13 12 17 18 17 15 16 17 17 17 10 13 15 17 12 13 12 10 13 11 11 11 12
33 33 32 31 31 31 31 30 29 28 25 25 25 24 24 23 17 17 16 18 16 17 17 16 12 12 13 7 5 6 7 13 16 17 16 17 16 13 17 18 18 14 10 14 15 15 15 11 8 8 8 10 10 12
34 33 32 31 31 31 31 31 30 28 26 23 25 23 24 23 19 17 14 15 12 15 18 20 23 15 12 3 0 2 3 9 14 12 13 15 15 16 17 18 16 10 10 11 14 14 16 9 7 8 8 9 9 12
34 34 33 32 32 32 32 31 29 27 26 23 24 22 23 23 19 16 14 14 13 11 18 19 19 16 13 6 2 2 6 7 9 14 12 14 15 14 19 20 16 13 14 16 18 17 12 12 7 7 8 9 9 12
35 34 34 33 33 33 32 30 29 27 25 24 23 21 22 22 15 13 16 16 13 14 17 20 18 14 13 9 6 7 7 10 9 11 16 20 14 16 25 28 19 17 18 18 19 15 13 7 8 6 7 8 10 13
35 35 34 34 33 32 31 29 27 25 24 24 22 21 22 19 15 15 14 4 10 15 15 18 17 16 14 9 7 9 11 11 13 14 18 18 16 19 22 34 29 28 21 19 17 10 16 9 7 5 6 7 9 12
35 35 34 33 32 31 29 27 26 23 23 23 23 22 16 12 13 14 12 9 7 14 16 15 16 17 16 14 15 13 15 17 14 16 7 7 25 20 29 31 31 32 26 20 14 10 5 7 2 4 5 6 7 9
34 34 33 32 31 29 27 25 23 21 21 20 15 13 12 12 11 10 12 12 11 11 12 14 13 13 18 16 15 17 15 18 16 17 19 18 38 38 35 35 34 27 21 17 13 9 3 3 1 3 5 4 5 7
34 33 32 31 29 27 25 22 20 18 15 12 12 12 15 12 10 12 12 12 11 13 11 13 13 15 10 15 18 15 19 18 22 18 21 22 5 19 32 35 30 18 15 16 16 22 1 2 1 2 6 6 4 5
35 34 32 30 28 25 23 18 14 11 12 14 14 14 12 10 11 12 12 12 11 12 11 13 14 13 14 11 15 16 18 17 20 15 19 20 14 19 22 22 19 18 21 14 13 10 1 3 6 3 5 6 5 4
36 33 30 28 26 23 19 14 9 13 16 13 11 11 11 10 10 11 10 10 10 10 10 11 13 12 12 9 14 17 17 17 16 16 19 22 18 20 20 20 21 22 20 8 7 4 2 4 5 6 4 3 3 5
33 31 28 26 24 19 14 10 7 7 9 10 9 10 9 10 10 8 6 10 10 11 10 14 14 10 12 7 13 16 16 18 18 16 19 17 22 24 23 22 21 20 10 3 2 2 2 2 4 5 5 4 3 5
29 28 25 23 18 14 9 6 3 7 9 11 11 10 8 9 10 10 9 9 9 10 11 13 15 15 10 12 14 17 15 16 15 17 18 21 21 21 20 19 18 14 5 0 2 1 1 3 7 9 8 6 6 7
28 25 23 15 9 8 4 2 7 10 12 12 11 14 11 9 5 6 8 9 12 10 11 15 15 14 10 14 14 16 17 17 15 16 17 18 18 17 16 15 14 11 6 4 5 7 8 9 9 10 9 9 8 8
22 21 13 8 5 3 5 7 8 11 13 14 15 10 14 14 10 7 12 12 16 11 16 14 17 15 13 13 18 16 20 19 17 18 18 18 18 17 16 15 14 12 10 9 8 7 8 9 10 11 11 11 10 8
17 13 4 3 4 3 9 12 12 13 17 19 16 11 3 9 12 8 10 15 15 15 15 18 16 19 18 18 17 15 19 19 20 20 18 17 18 18 17 16 15 13 12 12 11 10 9 10 11 13 13 11 10 9
9 3 5 9 6 7 8 12 15 18 20 20 17 16 11 18 17 13 14 15 16 17 16 16 20 22 19 25 24 22 18 18 18 17 17 17 18 18 19 17 16 16 14 14 14 13 13 15 18 17 15 10 7 5
3 3 10 11 6 11 12 13 17 21 20 20 18 10 8 24 20 9 8 16 18 18 17 21 24 24 21 20 16 14 19 20 21 21 19 15 15 15 17 19 18 16 16 15 14 17 21 20 18 14 10 9 8 6
5 3 7 9 15 18 17 16 16 20 21 20 18 5 21 26 28 15 24 20 21 17 24 27 24 21 18 24 20 17 18 18 18 21 18 17 15 16 16 16 16 15 16 15 17 16 20 21 15 10 9 9 9 7
5 3 8 14 16 18 20 21 20 18 19 18 16 14 20 22 13 30 23 19 26 31 30 27 26 26 22 22 18 13 13 13 10 11 15 17 21 14 16 20 16 16 17 19 17 12 5 10 12 13 9 10 13 9
3 5 9 12 18 19 20 18 19 19 20 17 13 16 18 14 15 15 22 23 30 30 28 27 30 24 19 18 14 13 10 11 11 9 18 25 20 15 21 18 16 20 25 18 11 10 14 16 13 7 7 9 12 12
6 8 8 15 18 20 20 21 20 19 19 17 18 20 17 17 15 18 21 19 20 23 24 17 12 9 7 8 10 12 11 7 20 24 25 24 23 22 23 24 24 21 20 22 16 9 11 12 11 6 6 7 9 12
8 6 14 16 18 20 20 20 20 18 19 21 19 17 17 19 19 19 19 18 16 16 15 13 10 10 10 12 16 17 18 22 23 23 23 22 23 23 22 22 20 18 6 6 6 6 6 7 6 6 6 7 5 20
18 21 22 21 19 21 21 20 21 23 20 19 19 19 21 19 20 19 17 15 16 16 17 17 17 17 13 19 20 19 18 20 22 23 23 23 23 23 18 20 22 6 7 5 6 5 6 5 5 5 7 12 17 16
20 22 25 22 21 20 22 22 21 21 19 19 22 23 21 20 18 15 13 15 16 18 19 20 21 22 22 22 21 21 20 19 20 21 20 19 17 16 17 23 23 19 11 7 9 17 15 11 10 14 17 18 6 7
19 19 20 22 23 22 20 21 21 22 23 21 22 21 18 17 15 15 14 17 18 19 19 19 18 18 19 20 20 21 20 19 19 19 20 16 9 6 5 14 25 15 8 20 23 18 13 12 13 12 10 7 6 7
20 19 19 22 23 23 23 22 22 21 21 20 20 17 16 14 13 13 14 17 17 15 15 15 15 16 15 15 15 16 17 18 19 20 21 23 22 17 18 23 24 6 8 23 6 13 21 8 7 7 6 5 7 10
19 19 21 22 23 24 22 24 22 22 20 19 15 12 11 10 11 11 13 14 12 12 12 13 16 16 16 16 16 16 16 17 18 21 23 23 23 24 19 22 20 21 19 11 6 8 8 8 8 8 6 6 6 7
18 20 22 23 23 22 22 22 21 20 18 13 10 6 7 8 10 12 14 15 16 18 18 17 17 17 17 17 18 19 20 20 23 24 25 24 20 7 22 21 21 21 18 8 8 12 6 7 8 7 5 7 9 6
18 20 19 19 19 17 19 20 17 15 14 11 9 8 10 12 13 14 17 18 19 20 21 21 21 21 21 21 21 21 22 23 23 24 24 24 23 22 22 22 22 23 16 9 8 6 5 5 6 3 3 5 9 11
18 19 20 20 18 16 14 13 10 10 11 12 12 11 11 13 14 16 17 19 20 21 21 22 23 24 24 22 22 23 23 23 23 24 24 24 22 22 22 21 17 15 14 10 6 6 5 6 6 2 6 7 5 8
Wind_Direction
319 321 322 323 324 326 329 329 331 332 332 333 333 338 340 350 349 1 13 10 10 10 4 9 7 7 16 15 0 348 346 348 338 332 328 329 331 327 326 323 296 301 317 339 324 320 321 322 336 319 331 344 351 359
318 319 320 321 323 325 328 330 331 333 335 338 338 337 339 346 350 354 8 6 3 7 359 353 353 1 60 355 343 348 340 343 335 333 333 330 343 327 313 301 315 290 307 317 310 327 335 336 333 342 336 356 4 5
316 318 319 320 321 322 323 324 326 333 337 338 338 340 336 338 352 355 357 356 3 360 353 4 1 20 15 198 180 350 2 340 345 326 320 321 328 328 323 308 299 318 317 313 310 336 331 340 350 345 359 11 23 18
313 314 316 318 319 318 317 320 324 330 338 339 337 336 335 337 350 352 353 351 357 355 353 0 21 9 357 359 174 179 337 333 325 324 324 316 323 331 327 305 290 308 326 318 317 318 319 346 7 22 24 6 18 14
308 310 312 314 314 314 313 316 319 326 331 339 334 334 332 334 341 345 346 348 350 351 346 338 334 352 354 26 93 174 298 315 317 328 325 315 323 315 315 306 298 312 324 329 331 328 318 4 37 37 25 6 15 6
304 305 306 308 309 309 309 312 317 322 326 333 333 333 329 330 338 349 353 359 359 3 346 346 348 353 353 1 324 292 312 314 311 310 319 314 312 320 295 288 301 305 306 304 312 320 339 340 14 8 8 0 10 360
301 302 302 303 304 305 306 310 315 320 324 327 329 328 326 326 340 345 343 351 6 1 347 341 343 352 346 341 327 320 311 313 309 307 304 297 309 303 283 272 289 298 300 303 312 324 329 351 348 26 13 7 1 352
299 299 300 299 301 303 305 309 314 319 322 323 326 324 321 327 333 335 342 346 358 348 348 341 339 343 346 336 311 312 309 305 305 296 296 299 307 299 290 260 275 279 292 299 313 328 320 333 340 41 35 22 6 357
299 296 297 298 300 300 304 307 312 319 321 320 319 318 334 345 344 345 356 16 6 347 342 340 337 340 342 327 311 312 302 298 309 300 266 266 287 292 275 267 271 272 279 292 306 322 345 327 356 65 63 39 29 20
298 297 297 295 298 300 302 305 310 317 318 322 332 342 343 348 8 14 3 359 355 349 339 330 333 330 329 326 314 300 303 293 302 300 298 300 250 255 265 262 267 280 284 289 301 314 309 288 202 124 124 89 60 34
295 294 294 293 296 297 299 304 309 316 323 333 336 338 343 3 4 355 351 350 356 348 355 348 338 325 329 312 305 311 298 303 293 304 293 297 268 306 273 258 272 284 285 288 297 299 293 125 353 122 139 127 79 42
290 290 290 291 293 294 296 301 308 314 320 319 324 335 348 355 355 350 350 356 353 354 358 352 350 346 336 317 304 310 297 307 295 320 303 299 323 322 299 280 286 287 283 279 284 297 325 342 354 48 133 131 122 92
282 284 288 287 288 289 290 296 299 293 302 318 333 337 345 353 345 348 347 1 2 11 9 15 356 360 353 328 302 300 300 301 317 311 299 290 321 310 296 291 283 283 288 271 259 246 264 322 357 18 59 121 18 9
282 283 283 281 283 285 287 287 287 295 307 320 332 327 338 351 348 354 11 6 5 3 15 353 352 5 342 350 313 303 307 305 303 308 295 313 301 290 286 287 287 291 304 199 231 187 190 311 349 359 1 19 14 354
280 276 278 279 281 277 276 273 252 286 305 314 322 330 327 337 350 358 357 359 358 353 347 343 330 319 335 318 306 294 310 302 305 300 308 306 292 291 290 294 295 312 339 160 303 324 322 322 327 336 348 356 357 352
270 273 273 280 276 265 246 238 272 280 299 312 313 311 323 344 6 7 3 17 348 338 333 314 304 310 329 318 306 292 295 302 306 306 310 312 318 318 308 310 320 326 340 329 323 309 311 315 325 337 348 349 351 354
272 271 280 267 247 187 156 276 275 282 295 301 297 302 311 330 335 350 328 341 312 325 285 298 279 291 316 336 284 300 285 309 308 303 310 319 310 303 308 313 316 330 339 336 339 344 340 338 334 335 339 344 350 1
274 275 263 186 165 177 263 272 281 287 285 279 289 305 326 327 315 349 337 316 305 294 287 273 280 273 285 280 295 328 314 321 296 289 305 308 296 303 308 310 316 320 323 325 329 337 343 340 333 332 337 343 347 351
283 288 143 148 192 269 286 267 280 284 273 274 280 292 305 285 287 300 300 304 303 287 285 278 267 244 233 236 245 270 325 325 313 309 311 305 308 314 296 303 311 316 323 323 318 319 327 319 316 325 329 344 355 8
306 127 141 149 202 281 287 286 268 274 278 277 280 284 291 268 277 309 306 291 281 283 280 260 252 251 255 277 320 332 308 313 303 288 304 325 327 327 313 303 304 318 313 325 336 313 299 308 324 338 352 349 349 1
290 253 145 179 260 275 275 277 271 270 271 275 283 288 271 256 251 286 263 275 279 290 257 233 216 198 196 257 315 322 323 327 323 305 312 317 322 316 322 325 323 332 328 334 330 329 303 294 332 7 2 350 345 9
307 259 260 244 272 275 271 262 266 271 267 275 283 282 268 261 279 239 262 276 262 246 229 231 237 259 297 306 324 341 342 347 350 331 322 313 292 324 322 301 325 332 325 318 327 348 55 352 344 348 8 355 334 6
358 298 280 258 271 269 263 263 262 262 255 269 284 273 267 283 278 270 264 271 241 228 222 220 242 284 308 321 334 338 341 342 349 348 298 265 300 323 291 312 322 308 258 305 351 360 335 327 340 27 33 355 335 342
349 319 274 271 262 261 259 250 251 257 257 262 258 253 263 265 262 257 253 267 269 273 272 300 331 340 353 351 344 340 335 357 210 256 245 219 215 218 251 245 240 223 222 279 325 20 358 349 351 36 60 20 7 336
341 299 277 260 256 251 248 245 245 250 246 238 243 253 253 236 241 247 249 257 285 296 310 326 354 5 7 358 338 313 183 205 214 226 231 217 226 233 231 233 223 206 62 80 115 83 53 46 67 102 35 23 95 211
228 225 226 231 239 237 235 236 234 229 232 233 238 239 224 234 235 239 251 275 290 301 308 319 320 309 262 224 235 239 248 240 230 225 227 227 220 229 237 238 251 117 107 100 147 150 149 89 100 108 131 156 193 193
199 198 204 218 222 230 224 222 224 220 227 228 216 213 222 226 237 253 274 298 301 304 303 294 280 256 242 238 235 233 235 236 223 228 240 222 201 193 205 254 293 311 354 68 158 210 188 165 155 171 185 211 46 100
200 206 210 216 215 218 219 217 216 217 217 219 217 219 229 239 244 255 295 300 302 297 293 290 299 281 268 256 247 237 236 239 237 240 236 198 155 124 93 202 241 333 154 216 236 211 173 164 167 162 148 127 25 32
210 218 225 215 212 215 218 219 222 223 221 220 223 232 239 243 260 270 292 317 319 306 303 297 296 286 298 312 299 280 274 271 286 286 293 289 322 356 348 302 255 116 125 247 63 161 288 154 78 102 75 49 7 357
209 213 205 204 203 203 207 205 212 216 223 228 238 237 242 262 289 309 318 327 305 296 275 263 299 307 309 315 306 299 307 308 320 304 288 276 272 306 336 267 235 220 284 328 65 19 41 88 81 79 68 49 39 24
210 202 195 192 187 189 191 200 207 212 215 229 238 264 277 282 297 321 322 314 321 334 326 316 311 305 299 295 295 294 299 305 302 299 296 277 252 53 282 255 253 270 301 100 117 154 100 100 128 128 67 19 3 22
197 193 193 192 189 197 200 198 205 214 218 229 250 282 279 281 287 297 303 309 315 320 323 320 313 313 306 294 295 313 310 295 298 299 298 295 284 266 258 267 284 283 323 14 20 62 84 114 125 77 80 21 353 349
193 193 192 192 197 207 220 230 255 263 262 260 268 290 302 294 295 299 304 312 309 306 302 299 301 308 311 310 317 303 302 294 293 290 306 295 288 282 277 300 340 346 276 154 69 69 112 145 157 127 352 353 14 356